Weather History for Sitka, AK

Change the Weather History Date:

Thursday, November 22, 2012

  Actual Average Record
Temperature  
Mean Temperature 40 °F -  
Max Temperature 44 °F 42 °F 57 °F (2005)
Min Temperature 37 °F 34 °F 17 °F (1996)
Degree Days  
Heating Degree Days 24    
Moisture  
Dew Point 31 °F    
Average Humidity 66    
Maximum Humidity 73    
Minimum Humidity 57    
Precipitation  
Precipitation 0.00 in - - ()
Sea Level Pressure  
Sea Level Pressure 29.39 in    
Wind  
Wind Speed 20 mph (ESE)    
Max Wind Speed 29 mph    
Max Gust Speed 45 mph    
Visibility 10 miles    
Events Rain    
Averages and records for this station are not official NWS values.
T = Trace of Precipitation, MM = Missing Value Source: NWS Daily Summary

Daily Weather History Graph

Daily Weather History Graph

Search for Another Location

Airport:

Trip Planner

Search our weather history database for the weather conditions in past years. The results will help you decide how hot, cold, wet, or windy it might be!

Date:

Astronomy

Nov. 22, 2012 Rise Set
Actual Time 7:59 AM AKST 3:35 PM AKST
Civil Twilight 7:13 AM AKST 4:21 PM AKST
Nautical Twilight 6:25 AM AKST 5:09 PM AKST
Astronomical Twilight 5:39 AM AKST 5:55 PM AKST
Moon 1:19 PM AKST (11/22) 1:26 AM AKST (11/22)
Length of Visible Light 9h 07m
Length of Day
7h 36m
Waxing Gibbous, 72% of the Moon is Illuminated
Nov 22
Waxing Gibbous
Nov 28
Full
Dec 6
Last Quarter
Dec 12
New
Dec 19
First Quarter

Hourly Weather History & Observations

Time (AKST) Temp. Windchill Dew Point Humidity Pressure Visibility Wind Dir Wind Speed Gust Speed Precip Events Conditions
12:53 AM 39.0 °F 29.3 °F 26.1 °F 60% 29.78 in 10.0 mi East 19.6 mph - N/A   Clear
1:53 AM 37.9 °F 29.6 °F 26.1 °F 62% 29.77 in 10.0 mi East 13.8 mph 21.9 mph N/A   Clear
3:53 AM 39.9 °F 29.7 °F 28.0 °F 63% 29.69 in 10.0 mi ESE 23.0 mph 32.2 mph N/A   Clear
4:53 AM 39.9 °F 30.8 °F 28.9 °F 65% 29.66 in 10.0 mi ESE 18.4 mph 25.3 mph N/A   Mostly Cloudy
5:53 AM 41.0 °F 31.9 °F 27.0 °F 57% 29.58 in 10.0 mi East 19.6 mph 32.2 mph N/A   Mostly Cloudy
6:53 AM 41.0 °F 32.5 °F 28.9 °F 62% 29.52 in 10.0 mi East 17.3 mph 29.9 mph N/A   Overcast
7:53 AM 41.0 °F 30.9 °F 28.9 °F 62% 29.46 in 10.0 mi East 24.2 mph 38.0 mph 0.00 in Rain Light Rain
8:53 AM 41.0 °F 32.5 °F 30.0 °F 65% 29.39 in 10.0 mi East 17.3 mph 36.8 mph 0.00 in   Overcast
9:53 AM 41.0 °F 32.5 °F 30.9 °F 67% 29.32 in 10.0 mi ESE 17.3 mph 39.1 mph N/A   Overcast
10:53 AM 41.0 °F 30.0 °F 30.9 °F 67% 29.29 in 10.0 mi ESE 28.8 mph 44.9 mph 0.00 in   Overcast
11:53 AM 42.1 °F 32.3 °F 32.0 °F 67% 29.23 in 10.0 mi ESE 24.2 mph 42.6 mph N/A   Overcast
12:53 PM 41.0 °F 30.7 °F 33.1 °F 73% 29.24 in 10.0 mi ESE 25.3 mph 43.7 mph 0.00 in   Overcast
1:53 PM 41.0 °F 30.5 °F 32.0 °F 70% 29.24 in 10.0 mi ESE 26.5 mph 38.0 mph N/A   Overcast
2:53 PM 41.0 °F 30.5 °F 33.1 °F 73% 29.26 in 10.0 mi ESE 26.5 mph 35.7 mph N/A   Mostly Cloudy
3:53 PM 42.1 °F 33.3 °F 33.1 °F 70% 29.26 in 10.0 mi SE 19.6 mph 28.8 mph N/A   Mostly Cloudy
4:53 PM 44.1 °F 35.9 °F 32.0 °F 63% 29.25 in 10.0 mi ESE 19.6 mph 29.9 mph N/A   Scattered Clouds
5:53 PM 44.1 °F 37.4 °F 33.1 °F 65% 29.25 in 10.0 mi ESE 13.8 mph 25.3 mph N/A   Mostly Cloudy
6:53 PM 43.0 °F 36.0 °F 34.0 °F 71% 29.24 in 10.0 mi SE 13.8 mph - N/A   Overcast
7:53 PM 43.0 °F 34.5 °F 33.1 °F 68% 29.24 in 10.0 mi ESE 19.6 mph 32.2 mph N/A   Overcast
8:53 PM 42.1 °F 33.9 °F 34.0 °F 73% 29.27 in 10.0 mi ESE 17.3 mph 28.8 mph 0.00 in   Overcast
9:53 PM 43.0 °F 35.4 °F 33.1 °F 68% 29.31 in 10.0 mi SE 16.1 mph - N/A   Overcast
10:53 PM 43.0 °F 35.7 °F 33.1 °F 68% 29.32 in 10.0 mi SE 15.0 mph - N/A   Overcast
11:53 PM 43.0 °F 35.1 °F 33.1 °F 68% 29.33 in 10.0 mi ESE 17.3 mph 26.5 mph 0.00 in   Overcast